Location: Colfax Spring
(37.8208°N, 120.0277°W)
Time: 15:03:53
(UTC+00:00)

Daily predictions for brighter satellites

Satellite Brightness Start Highest point End
(mag) Time Altitude Azimuth Time Altitude Azimuth Time Altitude Azimuth
DMSP B5D2-2 4.1 12:00:32 10° S 12:05:46 76° WSW 12:11:04 10° NNW
Cosmos-2242 3.2 12:02:04 10° N 12:06:24 76° E 12:10:40 10° S
Cosmos 1844 Rocket 4.2 12:02:09 10° WSW 12:06:26 22° NW 12:10:45 10° N
USA 234 3.7 12:00:20 10° ESE 12:06:51 72° NE 12:13:22 10° NW
ATLAS 5 CENTAUR R/B 1.1 12:05:29 10° SSW 12:08:41 66° ESE 12:12:04 10° NE
Cosmos 1515 4.3 12:05:21 10° N 12:08:46 55° E 12:12:10 10° SSE
